Tracking 25707 objects as of 29-Jun-2022
HD Live streaming from Space Station
objects crossing your sky now

STARLINK-3861

Track STARLINK-3861 now!
10-day predictions
STARLINK-3861 is classified as:


NORAD ID: 52503
Int'l Code: 2022-049BE
Perigee: 355.6 km
Apogee: 358.4 km
Inclination: 53.2 °
Period: 91.5 minutes
Semi major axis: 6728 km
RCS: Unknown
Launch date: May 6, 2022
Source: United States (US)
Launch site: AIR FORCE EASTERN TEST RANGE (AFETR)
aabbcc
Your satellite tracking list
Your tracking list is empty




NASA's NSSDC Master Catalog

Two Line Element Set (TLE):
1 52503U 22049BE  22179.91667824  .00079613  00000-0  56723-3 0  9998
2 52503  53.2151   1.4505 0002064  38.8015 124.1412 15.73160595  1307
Source of the keplerian elements: AFSPC